Orbital Elements at Epoch 2459200.5 (2020-Dec-17.0) TDB
Reference: JPL 32 (heliocentric ecliptic J2000)
Element | Value | Uncertainty (1-sigma) | Units |
e | .08398613502262083 | 3.7156e-08 | |
a | 3.072768896588926 | 1.9179e-08 | au |
q | 2.814698913146699 | 1.1565e-07 | au |
i | 8.2812107534597 | 4.2257e-06 | deg |
node | 270.0074092886226 | 3.012e-05 | deg |
peri | 27.57057361625761 | 3.9865e-05 | deg |
M | 236.2546753848026 | 2.7246e-05 | deg |
tp | 2459876.769144243450 (2022-Oct-24.26914424) | 0.00015051 | TDB |
period | 1967.402749838863 5.39 | 1.8419e-05 5.043e-08 | d yr |
n | .1829823608966111 | 1.7131e-09 | deg/d |
Q | 3.330838880031153 | 2.079e-08 | au |
|
| | Orbit Determination Parameters
Additional Information
|